This is the latest recevied weather packets stored in our database for station/object DC1NF-6. If no packets are shown the sender has not sent any weather packets the latest 10 day(s).
| Time | Temp. | Humidity | Pressure | Rain* | Wind** | Luminosity | Snow |
|---|---|---|---|---|---|---|---|
| 1777928758 | 16.67° C | 66% | 1012.4 hPa | 0 mm | - | - | - |
| 1777928154 | 16.67° C | 66% | 1012.2 hPa | 0 mm | - | - | - |
| 1777927550 | 16.67° C | 66% | 1012.2 hPa | 0 mm | - | - | - |
| 1777926946 | 17.22° C | 64% | 1012.2 hPa | 0 mm | - | - | - |
| 1777926344 | 17.22° C | 64% | 1012.2 hPa | 0 mm | - | - | - |
| 1777925134 | 17.22° C | 62% | 1012.3 hPa | 0 mm | - | - | - |
| 1777924531 | 17.78° C | 61% | 1012.4 hPa | 0 mm | - | - | - |
| 1777923926 | 17.78° C | 59% | 1012.4 hPa | 0 mm | - | - | - |
| 1777923323 | 17.78° C | 59% | 1012.4 hPa | 0 mm | - | - | - |
| 1777922719 | 17.78° C | 58% | 1012.4 hPa | 0 mm | - | - | - |
| 1777922175 | 18.33° C | 58% | 1012.4 hPa | 0 mm | - | - | - |
| 1777921571 | 18.33° C | 58% | 1012.3 hPa | 0 mm | - | - | - |
| 1777920968 | 18.33° C | 58% | 1012.3 hPa | 0 mm | - | - | - |
| 1777920364 | 18.33° C | 59% | 1012.3 hPa | 0 mm | - | - | - |
| 1777919759 | 18.33° C | 58% | 1012.3 hPa | 0 mm | - | - | - |
| 1777919156 | 18.89° C | 58% | 1012.2 hPa | 0 mm | - | - | - |
| 1777918552 | 19.44° C | 54% | 1012.2 hPa | 0 mm | - | - | - |
| 1777917948 | 20° C | 54% | 1012.1 hPa | 0 mm | - | - | - |
| 1777917345 | 20° C | 54% | 1012 hPa | 0 mm | - | - | - |
| 1777916742 | 20° C | 52% | 1012.1 hPa | 0 mm | - | - | - |
| 1777916137 | 20.56° C | 52% | 1012.1 hPa | 0 mm | - | - | - |
| 1777915533 | 21.11° C | 52% | 1012.1 hPa | 0 mm | - | - | - |
| 1777914930 | 21.11° C | 49% | 1012.1 hPa | 0 mm | - | - | - |
| 1777914325 | 21.67° C | 48% | 1012.1 hPa | 0 mm | - | - | - |
| 1777913722 | 21.67° C | 49% | 1012.1 hPa | 0 mm | - | - | - |
* Rain latest hour (hover to see other rain measurements)
** Current wind speed in m/s (hover to see current wind gust speed)